Volver al catálogo

IUS R/B(1)

ActivoHEO
NORAD 22315·ROCKET BODY·🇺🇸 United States

Lanzado Jan 13, 1993 desde Cape Canaveral Space Force Station

Loading…

Próximos Pases (próximas 24 horas)

TLE

ActualizadoSource: Space-Track

Época: Sep 13, 2026, 03:09 UTC

1 22315U 93003C   26256.13187294  .00004814  00000-0  81705-3 0  9995
2 22315  26.8350 192.6039 6008836 160.0671 240.4075  4.03773079186918

Sigue IUS R/B(1) en tiempo real con AllMySat

Download on the App Store